TimeCET,TemperatureF,Dew PointF,Humidity,Sea Level PressureIn,VisibilityMPH,Wind Direction,Wind SpeedMPH,Gust SpeedMPH,PrecipitationIn,Events,Conditions,WindDirDegrees,DateUTC
12:00 AM,42.8,41.0,93,29.68,6.2,WSW,6.9,-,N/A,,Partly Cloudy,240,2012-11-26 23:00:00
12:30 AM,41.0,39.2,93,29.68,6.2,WSW,4.6,-,N/A,,Partly Cloudy,240,2012-11-26 23:30:00
1:00 AM,42,40,89,29.70,19,West,5.8,,,,Scattered Clouds,260,2012-11-27 00:00:00
1:00 AM,42.8,39.2,87,29.68,6.2,West,5.8,-,N/A,,Partly Cloudy,260,2012-11-27 00:00:00
1:30 AM,42.8,39.2,87,29.68,6.2,West,3.5,-,N/A,,Partly Cloudy,260,2012-11-27 00:30:00
2:00 AM,41.0,39.2,93,29.68,-9999.0,West,5.8,-,N/A,,Clear,270,2012-11-27 01:00:00
2:30 AM,41.0,39.2,93,29.68,6.2,West,4.6,-,N/A,,Unknown,280,2012-11-27 01:30:00
3:00 AM,41.0,39.2,93,29.65,6.2,West,3.5,-,N/A,,Unknown,280,2012-11-27 02:00:00
3:30 AM,41.0,39.2,93,29.65,6.2,West,4.6,-,N/A,,Partly Cloudy,270,2012-11-27 02:30:00
4:00 AM,41.0,39.2,93,29.65,6.2,WNW,4.6,-,N/A,,Unknown,290,2012-11-27 03:00:00
4:30 AM,41.0,39.2,93,29.65,6.2,West,3.5,-,N/A,,Partly Cloudy,270,2012-11-27 03:30:00
5:00 AM,39.2,37.4,93,29.65,-9999.0,West,3.5,-,N/A,,Clear,260,2012-11-27 04:00:00
5:30 AM,39.2,37.4,93,29.65,-9999.0,West,4.6,-,N/A,,Clear,270,2012-11-27 04:30:00
6:00 AM,39.2,39.2,100,29.65,-9999.0,West,4.6,-,N/A,,Clear,270,2012-11-27 05:00:00
6:30 AM,39.2,39.2,100,29.65,-9999.0,West,4.6,-,N/A,,Clear,270,2012-11-27 05:30:00
7:00 AM,39,38,95,29.66,19,West,4.6,,,,Partly Cloudy,280,2012-11-27 06:00:00
7:00 AM,39.2,37.4,93,29.65,-9999.0,West,4.6,-,N/A,,Clear,280,2012-11-27 06:00:00
7:30 AM,39.2,37.4,93,29.65,-9999.0,West,4.6,-,N/A,,Clear,270,2012-11-27 06:30:00
8:00 AM,39.2,37.4,93,29.65,-9999.0,WSW,3.5,-,N/A,,Clear,250,2012-11-27 07:00:00
8:30 AM,37.4,37.4,100,29.65,-9999.0,West,3.5,-,N/A,,Clear,260,2012-11-27 07:30:00
9:00 AM,39.2,37.4,93,29.65,-9999.0,SW,3.5,-,N/A,,Clear,220,2012-11-27 08:00:00
9:30 AM,39.2,39.2,100,29.65,-9999.0,West,3.5,-,N/A,,Clear,270,2012-11-27 08:30:00
10:00 AM,42.8,41.0,93,29.65,-9999.0,West,4.6,-,N/A,,Clear,270,2012-11-27 09:00:00
10:30 AM,44.6,42.8,93,29.65,-9999.0,WNW,8.1,-,N/A,,Clear,290,2012-11-27 09:30:00
11:00 AM,46.4,42.8,87,29.65,-9999.0,NW,8.1,-,N/A,,Clear,310,2012-11-27 10:00:00
11:30 AM,48.2,42.8,82,29.65,6.2,WNW,9.2,-,N/A,,Partly Cloudy,300,2012-11-27 10:30:00
12:00 PM,48.2,42.8,82,29.65,6.2,NW,9.2,-,N/A,,Scattered Clouds,310,2012-11-27 11:00:00
12:30 PM,50.0,42.8,76,29.65,6.2,NW,5.8,-,N/A,,Scattered Clouds,320,2012-11-27 11:30:00
1:00 PM,51,43,67,29.65,19,NNW,6.9,,,,Partly Cloudy,330,2012-11-27 12:00:00
1:00 PM,50.0,42.8,76,29.65,6.2,NNW,6.9,-,N/A,,Scattered Clouds,340,2012-11-27 12:00:00
1:30 PM,50.0,42.8,76,29.65,6.2,North,4.6,-,N/A,,Scattered Clouds,350,2012-11-27 12:30:00
2:00 PM,50.0,42.8,76,29.62,6.2,NW,5.8,-,N/A,,Mostly Cloudy,320,2012-11-27 13:00:00
2:30 PM,50.0,42.8,76,29.62,6.2,NW,5.8,-,N/A,,Mostly Cloudy,320,2012-11-27 13:30:00
3:00 PM,50.0,42.8,76,29.62,6.2,NW,4.6,-,N/A,,Mostly Cloudy,320,2012-11-27 14:00:00
3:30 PM,50.0,42.8,76,29.65,6.2,NNW,5.8,-,N/A,,Mostly Cloudy,330,2012-11-27 14:30:00
4:00 PM,50.0,42.8,76,29.65,6.2,NW,3.5,-,N/A,,Mostly Cloudy,320,2012-11-27 15:00:00
4:30 PM,48.2,42.8,82,29.65,6.2,NNW,3.5,-,N/A,,Mostly Cloudy,340,2012-11-27 15:30:00
5:00 PM,48.2,42.8,82,29.65,6.2,Variable,2.3,-,N/A,,Mostly Cloudy,0,2012-11-27 16:00:00
5:30 PM,48.2,42.8,82,29.65,6.2,NNW,3.5,-,N/A,,Mostly Cloudy,330,2012-11-27 16:30:00
6:00 PM,48.2,42.8,82,29.68,6.2,NW,5.8,-,N/A,,Mostly Cloudy,320,2012-11-27 17:00:00
6:30 PM,46.4,41.0,81,29.68,6.2,NW,3.5,-,N/A,,Mostly Cloudy,320,2012-11-27 17:30:00
7:00 PM,46,41,78,29.70,19,NW,3.5,,,,Mostly Cloudy,320,2012-11-27 18:00:00
7:00 PM,46.4,41.0,81,29.68,6.2,NW,3.5,-,N/A,,Mostly Cloudy,320,2012-11-27 18:00:00
7:30 PM,42.8,39.2,87,29.71,6.2,NNW,3.5,-,N/A,,Mostly Cloudy,340,2012-11-27 18:30:00
8:00 PM,41.0,39.2,93,29.71,6.2,NNW,3.5,-,N/A,,Mostly Cloudy,340,2012-11-27 19:00:00
8:30 PM,44.6,41.0,87,29.71,6.2,NNW,3.5,-,N/A,,Mostly Cloudy,330,2012-11-27 19:30:00
9:00 PM,44.6,41.0,87,29.71,-9999.0,NNW,3.5,-,N/A,,Clear,340,2012-11-27 20:00:00
9:30 PM,44.6,42.8,93,29.71,-9999.0,NNW,4.6,-,N/A,,Clear,330,2012-11-27 20:30:00
10:00 PM,44.6,42.8,93,29.74,-9999.0,NW,4.6,-,N/A,,Clear,320,2012-11-27 21:00:00
10:30 PM,44.6,42.8,93,29.74,-9999.0,NW,5.8,-,N/A,,Clear,320,2012-11-27 21:30:00
11:00 PM,46.4,42.8,87,29.74,-9999.0,NW,4.6,-,N/A,,Clear,320,2012-11-27 22:00:00
11:30 PM,46.4,42.8,87,29.74,-9999.0,NW,5.8,-,N/A,,Clear,320,2012-11-27 22:30:00